Back to catalog

CZ-6A DEB

AliveSSO
NORAD 56236·DEBRIS·🇨🇳 China

Launched Nov 11, 2022 from Taiyuan Satellite Launch Center

Loading…

Next Passes (next 24 hours)

TLE

FreshSource: Space-Track

Epoch: Sep 14, 2026, 00:34 UTC

1 56236U 22151ABC 26257.02382780  .00003335  00000-0  91685-3 0  9991
2 56236  98.5926 285.3608 0068094 116.9003 243.9168 14.46287742189491

Track CZ-6A DEB in real time with AllMySat

Download on the App Store